Wind_Speed
23 25 26 26 27 28 30 33 33 32 31 32 32 32 32 32 32 32 32 33 33 33 33 34 34 33 33 32 30 29 28 29 30 31 31 30 30 30 29 28 26 24 23 22 21 20 19 19 19 18 18 18 18 18 18 18 19 19 19 19 20 20 19 19 19 19 18 17 16 16 15 15 14 14 14 14 14 14 14 13 13 12 12 11 10 8
22 23 23 24 25 27 28 31 32 32 31 31 32 32 32 32 32 33 34 34 35 35 35 35 35 35 35 34 32 31 29 30 32 33 33 32 32 31 30 29 27 25 24 22 21 20 19 18 18 18 18 17 17 17 17 18 18 18 18 18 19 19 19 19 19 18 18 17 17 16 16 15 15 15 15 15 15 14 14 13 13 12 12 11 9 8
20 20 22 23 24 25 25 28 30 31 30 30 30 31 31 32 32 32 33 35 35 36 36 36 35 35 35 35 34 32 32 32 33 34 34 33 32 32 30 29 27 26 24 23 21 20 19 18 18 17 17 17 17 17 17 18 18 18 18 18 18 18 19 19 19 18 18 17 17 16 16 16 16 16 16 16 15 15 14 13 13 12 12 11 9 8
18 18 20 21 22 22 22 24 26 28 27 27 27 28 28 29 30 31 32 33 34 34 34 34 33 33 34 34 33 33 34 34 34 34 33 33 32 31 30 29 28 27 25 24 22 21 19 18 18 17 17 17 17 17 18 18 18 19 19 19 19 19 19 20 19 19 18 17 17 16 17 17 17 17 17 17 16 15 14 13 13 12 12 11 10 9
16 16 17 18 19 20 19 20 21 23 23 23 23 24 25 26 27 28 30 31 32 32 32 31 31 32 33 33 34 35 36 35 34 33 32 31 31 30 30 29 28 27 26 25 23 22 20 19 18 18 17 17 17 18 18 19 19 20 20 20 20 20 21 20 20 19 18 18 18 18 19 19 19 19 18 17 16 15 14 14 13 13 13 11 10 10
15 15 15 15 16 17 17 17 18 19 19 20 21 21 22 23 24 25 26 28 30 30 30 30 31 32 33 35 36 37 36 35 34 32 31 30 30 30 29 29 28 28 27 26 24 23 22 20 19 19 18 18 18 18 19 19 20 21 22 22 22 22 22 22 21 20 19 19 19 20 21 21 21 20 19 18 17 16 15 15 14 14 13 12 11 11
15 15 14 15 15 15 16 16 17 17 18 19 19 19 20 20 21 22 24 26 28 29 29 30 31 33 35 36 37 37 36 35 33 32 31 30 30 29 29 29 29 28 27 26 25 24 23 21 20 20 19 19 19 19 19 20 21 22 23 24 24 24 23 23 22 21 20 20 21 22 23 23 22 21 20 19 18 17 17 16 15 15 14 13 12 12
13 14 15 15 14 14 15 16 17 18 19 19 18 18 18 19 20 21 23 25 26 27 29 30 32 34 35 36 36 35 35 34 33 32 31 30 30 29 29 29 29 28 28 27 26 25 24 23 22 21 20 20 20 20 20 21 22 23 24 25 25 25 25 24 24 23 23 23 23 24 24 24 23 22 21 20 19 19 18 17 17 16 15 14 13 13
14 14 16 16 15 14 14 15 17 19 20 20 19 18 18 18 19 20 21 22 24 26 28 29 31 33 34 34 34 34 34 34 33 32 32 31 30 30 30 29 29 28 28 27 26 26 25 24 23 22 22 21 21 21 21 21 22 23 24 25 26 26 26 25 25 24 24 24 25 25 25 24 23 23 22 21 20 20 19 19 18 16 15 14 14 13
15 16 16 17 17 16 14 13 16 19 20 20 20 19 19 19 19 19 19 20 22 25 26 28 29 30 31 32 32 32 32 32 32 32 32 32 31 31 30 30 29 29 28 28 27 26 25 25 24 23 23 23 23 22 22 22 23 23 24 25 26 27 27 26 26 25 25 25 25 25 25 24 23 23 22 21 21 20 19 19 18 17 16 15 14 14
15 16 16 16 17 17 15 14 15 18 20 20 20 19 19 20 20 19 18 18 20 23 25 27 28 28 28 30 31 31 31 31 31 31 31 31 31 31 30 30 29 29 28 28 27 27 26 26 25 25 24 24 24 24 24 24 24 24 24 25 26 26 27 27 26 26 25 25 25 25 24 24 23 22 22 21 20 20 19 18 18 17 17 16 15 14
14 15 15 15 15 16 15 14 14 16 19 18 16 15 18 20 21 20 19 18 19 21 24 26 27 27 27 27 28 29 29 30 30 30 30 30 30 30 30 29 29 29 28 28 27 27 27 26 26 26 25 25 25 25 25 25 25 25 25 25 25 26 26 26 26 26 26 25 25 24 24 23 23 22 21 20 19 19 18 18 17 17 17 16 15 15
14 14 15 15 15 15 15 14 13 14 17 17 16 15 16 20 21 21 19 19 19 20 22 24 25 26 26 26 25 26 27 28 29 30 30 30 30 30 30 29 29 29 29 28 28 28 27 27 27 27 27 27 27 26 26 26 26 26 26 26 26 25 25 25 26 26 26 25 25 24 23 23 22 21 20 19 19 18 17 17 17 17 17 16 16 15
13 13 13 13 14 15 16 15 14 14 16 18 19 19 19 20 21 21 19 18 18 19 19 20 21 23 24 25 25 24 25 26 27 29 30 31 32 31 31 30 30 30 30 29 29 29 29 28 28 28 28 28 28 28 27 27 27 27 27 27 26 25 25 25 25 25 24 24 24 23 23 22 21 20 20 19 18 18 17 17 17 17 17 16 16 15
12 12 11 11 12 14 16 16 16 16 17 19 20 20 19 19 20 20 19 17 17 17 17 17 17 19 21 23 24 24 24 24 25 26 29 31 32 32 32 31 31 32 31 31 31 31 31 30 29 29 29 29 29 29 29 29 29 28 28 27 27 26 25 24 24 24 23 23 23 22 22 21 21 20 19 19 18 18 18 18 17 17 17 16 16 15
13 12 11 11 12 14 16 17 18 18 18 19 19 19 18 18 19 20 19 18 17 16 14 13 12 13 16 19 21 23 23 24 24 24 25 28 31 32 32 31 31 32 33 33 33 33 33 32 31 31 31 31 31 30 30 30 29 29 29 28 27 26 25 24 24 23 23 22 22 22 21 21 20 20 19 19 19 18 18 18 18 18 17 16 16 15
13 13 13 12 12 14 16 18 18 18 18 19 19 20 20 20 21 21 20 19 17 15 14 12 8 5 7 11 17 21 23 24 25 24 24 25 27 30 31 31 31 32 33 34 35 34 34 33 33 33 33 32 32 31 30 30 30 30 29 28 27 26 26 25 24 23 23 22 22 21 21 21 20 20 19 19 19 19 18 18 18 18 17 16 16 16
14 14 14 13 13 14 15 17 18 18 18 19 19 20 21 21 21 21 21 19 17 15 14 13 10 6 4 5 10 16 22 23 24 24 23 23 24 26 28 29 30 31 33 34 35 35 35 35 34 34 33 33 32 31 31 30 30 30 29 29 28 27 26 25 24 23 22 22 21 21 20 20 20 20 19 19 19 19 19 18 18 17 17 16 16 16
15 15 15 14 14 14 15 17 18 18 19 19 20 20 20 20 20 20 20 19 18 17 15 14 13 12 10 9 11 15 19 21 23 23 21 22 22 23 25 26 28 30 31 33 34 35 35 35 35 34 33 33 32 32 31 30 30 30 29 29 28 27 26 25 24 23 22 22 21 20 20 20 20 19 19 19 19 19 19 18 17 17 17 16 16 16
16 16 17 16 15 15 15 17 19 20 20 21 21 20 20 20 20 19 20 19 19 19 17 16 15 15 15 15 15 16 17 18 20 22 21 21 21 21 22 24 26 28 30 32 34 35 35 35 34 33 33 33 32 32 31 30 30 29 29 29 28 27 26 25 24 23 22 21 21 20 20 20 20 19 19 19 19 19 18 18 17 17 16 16 16 16
18 18 19 18 17 15 16 17 19 20 21 21 20 20 20 19 19 19 19 20 19 19 18 17 18 19 19 18 17 17 17 18 20 21 19 19 19 20 21 23 25 27 30 32 34 34 35 35 34 33 33 32 32 32 31 31 30 29 28 28 28 27 27 26 25 24 22 22 21 20 20 20 19 19 19 19 19 18 18 17 17 16 16 16 16 16
19 19 20 19 19 18 17 18 18 19 20 21 21 20 19 19 19 20 21 21 21 20 20 20 21 22 22 19 18 18 17 17 20 21 17 14 15 18 20 22 24 26 29 32 33 34 34 34 33 33 32 32 31 31 31 31 30 29 28 27 27 27 26 26 25 24 23 22 21 20 20 20 19 19 19 19 18 18 17 17 16 16 16 16 16 16
22 21 20 20 21 21 20 19 18 19 21 22 23 23 22 23 23 23 24 25 25 25 24 24 23 21 20 19 17 17 16 16 17 18 16 11 12 16 20 21 23 25 28 31 32 32 32 32 33 32 32 31 30 29 29 30 30 29 28 28 27 27 26 26 25 24 23 22 21 21 20 20 19 19 19 19 18 17 17 16 16 16 16 16 16 16
25 24 22 22 22 22 22 21 20 20 21 23 25 27 27 27 27 26 26 27 27 26 23 21 18 16 16 17 17 16 16 16 16 16 15 13 12 15 19 21 22 24 28 30 30 30 30 31 31 31 31 30 29 28 28 28 28 28 28 28 27 26 26 25 24 23 22 22 21 20 20 20 19 19 19 18 18 17 17 16 16 16 17 16 16 16
27 26 26 25 24 23 23 23 22 22 22 24 25 27 27 27 25 24 23 23 22 21 18 15 13 13 14 16 16 17 18 18 18 18 17 14 14 16 19 21 22 23 24 26 27 28 28 29 29 30 30 29 28 27 27 26 27 27 27 27 27 26 25 24 23 22 22 21 20 20 20 19 19 19 18 18 17 17 17 17 17 17 17 17 17 17
26 27 27 27 26 25 24 24 24 23 23 24 25 26 27 26 24 22 19 18 18 17 16 14 13 13 15 15 16 18 20 21 21 21 20 17 16 17 19 21 22 22 22 22 23 25 25 26 27 28 29 28 28 27 26 25 25 25 26 26 25 25 24 23 22 21 21 20 20 19 19 19 19 19 18 17 17 17 17 17 17 17 17 17 17 17
25 25 26 26 26 26 25 25 24 24 24 24 25 26 27 26 24 21 19 19 19 18 16 12 10 10 13 14 15 18 21 23 24 25 24 21 18 17 19 20 21 21 20 19 20 22 22 24 26 27 28 28 27 26 25 25 24 24 24 24 24 23 23 22 21 20 20 20 19 19 19 19 19 18 18 17 17 17 17 17 17 17 17 17 18 18
25 25 25 25 26 26 26 26 25 25 25 24 24 25 27 27 25 22 21 21 21 19 18 13 9 7 9 12 15 17 20 23 25 27 27 23 18 17 19 19 19 19 19 17 17 19 21 22 24 26 27 26 26 25 25 24 24 24 23 23 22 22 21 21 20 20 20 20 20 19 19 19 18 18 17 17 17 17 17 17 17 17 17 17 18 18
27 26 26 25 25 26 26 26 26 26 26 25 25 26 27 28 27 25 23 22 21 20 18 17 14 12 11 13 14 15 18 21 25 28 28 23 18 17 18 18 18 18 18 14 13 15 18 21 23 25 25 25 25 24 24 24 24 23 23 22 21 21 21 20 20 20 20 20 20 20 19 18 18 17 17 17 17 17 17 17 16 17 17 17 18 18
26 27 27 26 26 26 26 26 27 27 26 26 25 26 27 29 29 28 25 23 22 21 19 18 17 16 14 11 9 9 14 20 25 27 28 23 19 18 18 17 18 19 18 13 8 6 11 18 22 25 25 24 23 23 24 24 24 23 23 22 21 20 20 20 20 20 20 20 20 20 19 18 18 17 17 17 17 17 17 16 16 17 17 18 18 18
24 25 26 26 26 26 26 26 26 26 26 26 26 27 28 29 29 28 26 24 24 23 21 20 19 18 16 10 5 3 7 17 24 27 28 24 20 19 18 17 18 20 19 15 7 1 4 9 16 21 24 23 23 23 23 24 24 23 23 22 21 21 21 21 21 21 20 20 20 19 19 18 18 17 17 17 17 17 17 16 17 17 17 18 18 19
22 22 23 24 25 25 26 26 26 26 26 27 27 27 28 29 29 29 27 26 26 25 23 21 20 20 19 16 10 7 7 14 20 25 28 25 21 20 20 19 19 20 21 20 14 6 3 3 8 14 20 22 23 23 23 24 24 23 23 23 22 22 22 22 22 21 21 20 20 19 19 18 18 17 17 17 17 17 17 17 17 17 17 18 18 19
20 20 21 22 23 24 25 26 26 27 27 27 28 28 28 29 29 30 29 29 28 27 25 23 21 20 20 21 19 16 14 14 17 22 26 25 21 19 20 20 19 20 22 23 20 13 7 4 4 7 14 20 23 23 23 24 24 24 24 24 24 24 23 23 23 22 22 21 20 19 19 18 18 17 17 17 17 17 17 17 17 17 17 17 18 18
19 19 20 20 21 23 24 25 26 27 27 28 28 28 28 29 29 30 30 30 29 28 27 25 24 22 21 20 20 20 19 15 16 19 22 25 23 19 20 21 20 20 21 21 19 15 9 7 4 4 7 15 21 23 24 24 24 24 24 25 25 25 25 24 24 23 23 22 22 21 20 19 18 17 16 16 16 17 17 17 17 17 16 17 17 18
18 19 19 19 20 21 22 24 25 27 27 28 28 29 29 29 29 30 30 31 30 30 29 28 27 25 24 22 20 20 21 18 17 18 21 25 25 21 21 21 22 21 20 19 18 16 11 9 7 5 4 10 15 20 23 25 25 25 25 25 25 25 25 25 25 24 24 23 23 22 21 20 19 18 18 17 17 17 17 17 17 17 16 16 16 17
18 18 19 19 19 20 21 22 24 25 26 27 28 28 29 29 29 29 30 31 31 31 31 30 30 29 28 26 24 23 22 21 20 20 21 24 25 23 21 21 22 22 21 19 18 17 13 11 9 8 6 7 9 14 20 24 25 25 25 25 26 26 26 25 25 24 24 24 23 23 22 20 19 19 19 19 18 18 17 16 16 16 16 15 15 15
18 18 18 18 19 19 20 21 22 23 24 25 26 27 28 28 29 29 29 30 31 31 31 31 31 30 29 28 27 25 23 22 22 22 22 23 24 24 22 20 21 23 22 20 19 18 16 12 10 9 7 7 7 10 14 22 25 25 26 26 26 26 26 25 25 25 24 24 23 22 21 20 19 19 19 19 19 19 17 16 16 15 15 15 15 14
18 18 18 18 19 19 19 20 21 22 23 24 25 26 27 27 28 28 28 29 30 31 31 31 31 30 30 29 27 25 23 22 22 22 22 23 23 24 23 20 20 22 23 22 21 20 18 14 9 7 7 8 8 10 14 20 23 25 26 27 27 27 26 26 25 25 24 24 23 22 20 19 18 18 19 19 20 20 19 18 17 17 17 17 17 16
18 18 18 18 19 19 19 19 20 21 22 23 24 25 25 26 26 27 27 28 29 30 30 30 30 30 29 28 27 25 23 21 21 22 22 23 23 23 23 21 20 21 23 23 22 21 20 17 14 11 9 8 9 11 15 19 23 25 27 27 27 27 26 26 25 25 24 23 22 21 19 18 18 17 18 18 19 20 20 19 19 19 18 18 18 18
18 18 18 18 18 19 19 19 20 20 21 21 22 23 24 24 25 25 26 26 27 28 28 28 28 28 28 27 26 24 23 21 21 21 21 22 22 23 23 22 21 21 22 23 22 22 21 20 19 17 15 12 11 12 14 19 22 24 26 22 22 24 27 26 25 25 24 23 22 20 19 18 17 17 17 18 18 19 19 19 19 19 19 19 19 19
19 19 19 18 18 18 19 19 19 19 20 20 21 22 23 23 24 24 23 24 24 25 25 26 26 25 25 25 25 24 22 21 20 19 20 21 21 22 22 23 22 21 21 22 23 23 23 21 20 19 18 16 15 14 16 19 22 24 24 22 21 22 25 26 25 24 23 22 21 20 19 18 17 17 17 18 18 18 19 19 19 19 19 19 19 19
19 19 18 18 17 18 18 18 19 19 19 20 21 22 23 24 23 22 22 21 22 22 23 23 23 22 22 22 22 23 22 21 19 19 19 19 20 21 22 22 22 22 21 22 22 23 23 22 21 20 19 18 16 14 15 19 22 23 23 23 22 21 20 24 25 24 23 21 20 19 18 18 18 18 18 18 18 19 19 19 19 19 19 19 19 19
19 19 18 18 17 18 18 18 18 19 20 21 22 23 24 24 24 23 22 21 21 21 22 22 22 21 19 19 20 20 21 21 20 19 18 18 19 20 21 22 23 23 22 21 21 22 23 23 22 21 21 21 19 17 15 17 21 23 22 23 22 18 12 18 23 24 23 21 20 19 19 18 18 18 18 19 19 19 19 19 19 19 19 19 18 18
19 19 18 18 18 18 18 18 19 19 20 21 21 22 23 23 23 23 22 21 21 21 21 21 20 19 18 18 18 19 19 19 19 19 18 18 18 19 20 21 23 23 24 23 21 21 21 21 21 21 21 21 20 19 17 18 19 21 22 23 22 20 16 16 19 22 23 22 21 20 19 19 18 18 19 19 19 20 20 20 19 19 19 19 18 18
19 19 18 18 18 18 19 19 19 19 20 20 21 21 22 23 23 22 21 21 20 20 19 20 18 17 16 17 17 17 17 18 18 18 19 19 19 19 20 22 23 24 25 25 24 22 21 21 21 21 21 21 21 20 18 18 19 20 21 22 22 22 21 17 17 19 21 21 21 20 20 19 18 18 18 19 19 20 20 19 19 19 18 18 18 17
19 18 18 18 19 19 19 20 19 19 20 20 20 20 21 22 23 22 22 21 20 19 19 19 18 17 15 16 16 16 15 15 16 17 19 19 20 21 21 23 24 25 26 26 25 24 23 23 22 21 20 20 20 19 19 18 19 19 20 21 21 21 20 17 15 16 18 20 20 20 19 19 18 17 17 18 19 19 19 19 19 18 18 18 17 17
19 18 18 18 19 19 19 19 19 19 19 19 19 19 21 22 22 22 21 21 20 19 18 18 18 18 17 17 16 16 15 14 14 16 18 20 21 22 23 24 24 25 25 25 25 24 24 23 23 23 21 19 18 17 18 18 18 19 20 21 21 21 19 18 17 16 17 18 19 19 19 18 17 16 17 17 18 18 19 19 19 19 18 17 17 17
19 19 19 18 19 19 19 19 19 19 18 18 18 19 20 22 22 21 20 20 20 19 18 17 17 17 17 17 17 17 17 16 15 15 16 18 20 22 23 24 24 24 23 23 22 22 21 21 22 22 23 21 19 17 17 17 18 19 20 21 21 21 19 20 19 18 17 17 18 18 18 17 16 16 16 16 16 17 18 19 19 18 17 16 16 16
19 19 19 19 18 18 18 19 19 19 18 18 18 18 20 21 22 22 21 20 20 19 18 17 17 17 16 17 17 18 17 16 16 16 16 17 19 20 21 21 21 21 20 19 19 19 19 19 20 20 21 22 20 18 17 17 18 18 19 20 20 20 19 20 20 20 19 19 18 18 18 17 17 16 16 15 16 17 18 18 18 17 16 15 15 15
20 20 20 19 19 19 19 19 19 19 18 18 18 18 19 20 21 22 22 21 21 20 20 19 18 17 16 16 17 17 17 16 16 16 17 18 19 20 20 20 19 19 17 16 15 15 15 15 16 18 19 20 20 19 18 18 18 18 19 19 20 20 19 19 19 21 21 20 19 19 18 18 17 17 16 16 16 17 17 18 18 17 16 15 14 14
19 20 20 20 20 19 19 19 19 19 19 19 18 18 19 19 20 21 21 21 21 20 20 19 19 18 17 17 17 17 17 17 16 16 17 18 19 21 21 20 20 19 16 14 12 12 11 10 10 13 17 19 19 19 19 19 18 18 18 19 20 20 19 18 19 20 20 20 20 19 18 18 18 18 17 17 16 16 16 16 17 17 15 14 13 13
Wind_Direction
196 200 204 208 208 208 211 214 214 213 214 216 216 215 214 213 214 214 214 214 213 212 211 212 212 213 213 213 213 212 213 215 218 222 224 225 225 224 224 224 224 224 224 224 224 225 226 227 228 229 230 231 231 231 231 231 230 230 229 228 226 224 221 221 222 222 222 221 220 220 221 223 225 229 232 235 238 241 244 247 249 252 255 257 257 253
191 194 196 200 203 204 208 212 213 212 212 214 215 215 214 214 214 216 217 217 216 215 214 214 214 215 215 216 216 216 216 218 221 223 224 224 223 222 223 224 225 226 226 227 227 228 228 229 230 231 232 232 232 230 229 228 228 227 226 225 223 220 218 218 219 220 220 220 220 220 221 223 225 228 231 233 237 240 244 248 252 255 258 260 258 253
185 188 191 195 197 200 203 208 211 212 213 214 216 216 216 216 216 218 219 220 220 220 220 219 220 220 221 221 220 219 217 218 219 220 221 220 220 221 223 224 226 227 228 229 230 230 231 232 232 233 234 233 232 229 228 227 226 224 223 221 219 217 216 216 217 218 219 220 221 222 223 224 226 228 230 233 236 239 244 248 252 256 259 260 257 252
189 188 191 195 198 201 203 206 209 211 212 214 217 218 219 218 218 220 222 223 223 223 224 224 225 225 226 225 223 219 216 215 216 217 218 218 220 221 223 225 227 229 230 232 233 233 234 234 235 235 236 235 233 230 227 225 224 222 220 218 216 215 215 215 216 216 217 219 220 222 223 224 226 228 230 233 236 239 243 247 251 256 258 258 255 251
200 198 199 201 203 205 209 211 212 211 212 214 217 220 221 221 221 222 224 225 225 225 225 225 226 226 226 224 221 216 213 212 213 215 217 219 221 223 225 226 228 230 232 234 235 236 236 236 237 237 238 237 234 231 228 225 224 222 219 216 215 214 215 215 216 216 215 216 218 221 223 225 227 229 231 233 236 239 243 247 251 255 256 255 252 250
206 207 209 210 210 211 213 216 217 215 212 214 217 221 223 223 223 222 223 224 224 223 223 222 223 223 222 221 218 215 213 213 214 216 218 220 222 224 226 227 229 231 233 235 236 237 238 238 239 239 240 239 237 233 230 227 225 222 219 217 215 214 215 216 216 216 214 215 217 219 222 224 227 230 232 235 237 241 244 248 251 253 254 251 249 248
206 208 212 214 215 215 214 216 218 217 212 210 212 216 218 219 219 220 221 222 221 220 219 219 219 220 219 218 217 216 215 216 216 218 219 221 223 225 226 228 231 233 234 236 237 238 238 239 240 241 242 241 239 236 232 229 227 224 221 218 216 215 216 216 217 216 215 215 217 219 222 225 228 231 234 237 241 244 247 249 251 252 251 249 246 246
200 205 209 211 212 213 213 214 217 217 213 207 204 204 207 209 211 214 217 218 218 217 216 216 217 218 218 218 218 218 219 219 219 219 220 222 224 225 227 229 231 233 235 236 237 238 238 239 240 242 243 242 241 238 234 231 229 227 224 221 219 217 217 218 218 217 217 217 219 221 224 227 230 234 238 241 244 247 249 251 251 250 248 247 244 244
194 198 204 206 206 205 206 211 214 215 212 206 200 196 195 199 203 208 212 214 215 215 214 215 216 218 219 220 220 221 221 221 221 221 222 223 225 226 228 230 232 234 235 236 237 237 238 239 241 242 243 243 242 239 236 233 231 229 227 225 222 221 220 220 220 220 220 221 222 224 227 230 233 237 241 244 247 249 251 251 250 248 245 244 243 242
196 195 199 204 205 204 200 204 208 210 210 205 201 198 195 195 197 201 206 210 213 214 215 215 216 218 220 221 221 221 221 222 223 224 225 226 227 229 230 231 232 234 235 236 237 237 238 239 240 242 243 243 241 239 237 234 232 231 229 227 226 224 223 222 222 222 223 224 226 228 231 233 237 240 243 246 248 250 251 250 248 246 244 243 242 242
194 195 195 198 203 204 202 201 203 204 203 201 200 200 200 199 197 197 201 206 210 212 214 215 216 217 218 219 220 220 221 221 223 224 226 228 229 231 232 233 234 235 236 237 237 238 238 239 240 241 241 241 240 238 236 234 233 232 231 229 228 227 225 225 224 224 225 226 228 230 233 235 238 241 243 245 247 248 249 249 247 246 244 243 243 241
189 192 194 195 197 200 201 201 200 198 195 193 195 201 206 205 203 201 201 204 206 208 211 214 216 217 217 218 220 220 221 221 223 224 225 227 229 230 232 233 235 236 236 237 237 238 239 239 240 240 240 240 239 237 235 234 233 233 232 231 230 228 227 227 226 226 227 228 230 232 234 236 238 241 243 244 245 246 246 246 247 247 247 246 246 244
189 189 191 193 194 195 196 194 191 189 189 190 193 200 206 207 206 205 206 208 209 210 212 214 216 219 220 221 221 221 222 223 224 225 226 227 228 229 231 232 234 235 236 236 237 237 238 238 238 238 238 238 237 236 235 234 233 233 233 232 231 230 229 228 228 228 228 229 230 232 233 235 237 239 241 242 243 243 243 244 245 246 248 248 248 247
186 186 187 190 193 195 195 192 188 187 191 196 200 204 206 207 206 206 209 213 215 215 216 216 218 221 224 224 225 225 225 225 227 227 228 229 230 231 231 233 234 236 237 237 237 237 237 236 236 236 236 236 235 234 233 233 232 233 232 232 232 231 230 229 229 229 229 230 230 231 233 234 236 238 239 240 241 241 241 242 243 245 247 248 248 248
186 184 187 192 195 197 197 196 196 197 200 202 204 206 206 206 205 206 208 213 217 217 217 218 221 226 229 229 229 229 227 227 227 229 230 231 232 233 233 234 236 238 238 238 238 238 238 236 235 234 234 233 233 232 231 230 231 231 232 232 232 232 231 231 230 230 230 230 230 231 232 233 235 237 238 239 240 241 241 241 242 244 245 246 246 246
196 192 193 197 200 200 200 199 200 203 204 204 204 202 200 200 202 204 206 210 212 213 212 214 220 231 238 239 237 234 230 227 227 229 232 234 236 236 234 233 235 237 238 238 238 238 238 237 236 235 233 232 232 231 230 229 229 229 230 231 231 232 232 231 231 231 231 230 230 231 231 233 235 236 238 240 241 241 241 242 243 243 244 244 243 243
207 203 203 203 204 205 204 203 204 205 204 203 202 201 200 200 201 203 204 206 207 207 208 209 211 226 242 244 244 241 235 230 229 230 233 236 239 239 236 234 233 235 237 238 238 238 238 237 236 235 233 232 231 230 229 228 228 228 229 230 231 231 232 232 232 232 232 231 231 231 232 233 235 237 239 240 241 242 242 242 243 243 243 242 241 240
216 212 210 210 211 210 207 205 205 205 203 202 201 202 203 204 204 204 204 203 203 203 206 208 211 214 217 229 240 242 240 232 228 229 233 236 240 241 239 236 234 235 237 237 238 239 238 237 236 234 233 232 231 229 228 228 227 227 228 229 230 231 232 232 233 233 233 232 232 233 233 235 236 238 240 241 242 242 242 243 242 242 241 240 239 239
222 219 216 217 217 215 211 208 206 205 204 203 201 200 201 203 204 204 204 204 203 203 204 207 212 218 221 227 236 241 242 233 225 223 228 234 238 239 239 236 235 235 237 237 238 239 239 238 236 234 233 231 230 229 228 227 226 226 227 228 229 230 231 232 233 233 233 234 234 234 235 236 238 239 240 241 242 243 242 242 241 240 239 238 237 238
228 225 222 221 220 219 217 213 210 208 206 204 202 199 197 198 199 201 204 206 207 208 208 208 211 217 221 226 232 237 237 228 219 216 223 231 235 237 237 235 233 233 236 238 239 239 239 238 237 235 233 232 231 230 229 227 225 225 226 227 228 229 230 231 232 233 234 234 235 236 236 237 238 239 240 241 242 242 242 241 239 238 236 236 236 237
234 232 229 225 222 221 222 220 217 212 209 205 201 198 197 196 196 199 203 206 208 209 210 211 215 218 220 222 225 229 229 218 208 207 217 226 232 235 235 234 232 233 235 238 239 240 239 239 237 236 234 233 232 231 229 227 225 224 224 225 226 228 229 230 232 233 234 235 236 237 237 237 237 238 239 239 240 240 239 238 237 235 235 235 235 237
235 236 234 229 225 224 225 224 221 216 211 205 201 199 198 197 198 201 204 205 207 208 211 214 219 221 221 220 222 226 226 215 205 203 208 220 232 236 236 233 232 232 234 238 240 240 240 239 238 237 236 235 234 232 230 228 225 223 222 223 225 226 228 230 231 233 235 236 236 237 236 236 236 236 236 237 238 238 237 236 235 234 233 234 235 237
237 238 237 234 230 228 227 227 224 220 214 210 207 206 207 207 206 206 207 208 209 211 214 217 220 222 221 219 220 224 225 218 210 205 205 214 233 241 240 234 230 230 234 238 239 240 240 240 240 239 238 237 235 233 231 228 225 223 221 222 223 225 227 229 231 233 235 236 236 235 234 234 233 233 235 236 236 236 235 234 233 232 233 233 235 237
238 239 239 237 234 232 229 228 226 223 220 217 217 218 219 219 219 218 217 217 216 216 216 217 218 221 221 219 219 222 224 220 213 209 209 217 232 241 241 234 227 227 233 238 239 240 240 241 241 240 239 237 235 233 230 227 225 222 221 220 221 224 226 229 231 233 235 235 234 232 231 231 230 231 233 234 235 234 233 232 232 232 232 233 235 238
237 238 239 238 237 235 233 230 228 227 225 223 222 222 222 223 223 222 222 221 219 216 214 212 215 220 222 220 220 222 225 225 220 214 211 215 227 236 238 232 225 224 230 236 239 240 240 241 241 241 239 237 234 231 228 226 223 222 221 220 221 223 226 228 231 232 232 232 230 229 228 227 228 229 230 231 232 232 231 231 231 231 232 234 236 238
238 238 239 239 239 237 236 233 231 230 229 227 225 222 219 218 217 217 216 216 214 211 209 210 215 220 223 221 221 223 225 226 224 219 214 215 222 230 234 232 225 222 226 233 238 239 239 240 241 240 238 235 231 228 226 223 222 220 220 220 221 223 225 226 228 228 228 227 226 226 225 226 226 227 228 229 229 229 230 230 230 231 233 235 237 239
240 239 239 239 238 237 236 234 233 232 231 230 228 224 219 214 211 209 210 212 210 207 204 207 214 222 223 223 225 225 224 223 221 219 215 213 218 227 231 230 226 221 221 226 234 238 238 239 239 239 236 233 229 225 223 221 219 218 218 218 219 220 221 222 223 223 223 223 223 223 224 225 225 226 227 227 228 228 229 229 230 232 234 235 238 240
241 241 240 239 238 237 236 235 234 233 232 231 229 225 221 214 208 205 209 211 209 206 205 207 211 216 221 223 226 226 224 221 219 216 213 210 215 226 229 229 225 219 214 219 229 235 237 237 238 238 235 232 227 223 220 218 217 216 216 216 216 216 217 218 219 219 219 220 221 222 223 224 225 225 226 226 227 228 229 230 231 232 234 236 238 240
242 242 241 240 239 238 237 236 235 234 233 231 229 226 223 218 213 211 213 213 209 205 207 211 213 216 219 222 224 225 224 222 220 216 211 208 214 226 228 226 221 214 206 209 222 232 236 237 237 236 234 230 225 220 217 215 214 214 213 214 214 214 215 215 215 216 217 218 220 222 223 223 224 224 225 226 227 228 229 229 231 232 233 235 237 239
243 243 242 241 240 238 237 236 235 234 233 231 229 226 225 223 222 220 218 214 208 206 208 212 215 216 217 217 218 223 226 225 222 216 209 206 213 224 224 220 215 209 199 196 203 231 238 237 236 234 232 228 222 217 214 212 212 211 211 211 211 212 213 213 213 214 216 218 220 222 223 223 223 224 225 226 227 228 228 229 230 231 233 234 235 237
243 242 242 241 240 238 236 235 234 233 232 231 228 225 225 225 225 224 221 216 211 209 210 211 214 214 211 206 201 213 227 224 220 215 209 204 210 220 218 213 209 206 201 193 182 152 239 235 231 229 229 225 220 215 211 210 210 210 209 208 208 209 210 211 212 214 216 219 221 222 222 223 223 223 224 225 227 227 228 228 228 229 231 233 235 236
243 242 241 241 240 238 236 234 232 231 230 229 227 225 223 223 224 223 221 218 215 213 212 213 214 213 212 211 212 218 225 219 217 213 208 204 209 217 217 212 206 203 203 200 200 201 198 221 215 216 221 220 217 214 210 209 210 209 209 207 207 207 208 209 211 213 216 218 220 221 221 222 222 223 224 225 226 226 226 225 226 227 229 232 234 237
245 243 242 240 239 237 235 233 231 229 228 227 225 223 222 222 223 223 221 219 218 216 215 214 214 214 215 218 221 225 229 223 218 213 208 205 206 212 215 212 205 200 200 201 206 212 216 207 188 198 210 213 213 212 210 209 209 209 208 207 206 206 207 208 210 213 215 217 218 219 219 220 221 222 223 224 225 225 224 224 224 225 228 232 235 238
244 243 242 240 238 237 235 233 231 229 227 226 224 223 221 221 221 222 221 221 220 219 217 216 214 214 215 218 223 227 229 227 220 214 209 203 202 207 210 207 204 199 197 199 205 213 225 221 202 183 199 206 209 210 209 208 208 209 209 209 208 207 207 208 210 212 215 217 218 218 219 220 221 222 222 223 223 224 223 224 224 225 228 232 235 238
242 242 240 238 237 235 234 232 230 228 226 225 224 223 222 220 220 220 221 221 220 220 220 220 219 217 216 217 220 224 225 224 220 215 210 203 202 204 205 205 203 200 196 198 203 209 219 222 214 195 175 192 202 207 208 208 208 208 208 210 210 210 210 210 211 213 216 218 219 221 222 223 223 222 221 220 221 221 222 223 224 225 227 231 235 239
240 239 238 236 234 233 232 231 229 228 226 225 224 223 222 221 221 221 221 221 221 222 222 223 224 223 223 222 222 223 223 223 221 218 213 208 205 204 205 206 205 202 198 199 202 207 213 216 214 203 179 170 188 203 208 208 208 207 208 209 211 212 213 214 215 217 218 219 221 223 225 227 228 226 222 220 219 219 221 222 224 225 227 230 234 239
236 237 236 234 232 231 230 229 228 227 227 226 225 224 223 222 222 222 222 222 222 223 223 224 225 226 226 228 229 229 229 227 224 221 218 214 210 208 208 210 209 205 201 201 202 206 209 211 208 203 194 181 179 191 202 206 206 206 207 208 210 212 213 216 218 220 221 222 223 225 227 229 230 228 224 220 218 219 220 222 224 225 227 230 234 238
233 235 234 233 231 229 229 228 227 227 226 226 226 226 225 225 224 224 224 224 224 224 224 224 225 225 226 227 229 231 232 231 228 224 221 218 215 213 213 213 211 209 207 206 204 204 205 206 203 199 204 204 198 193 195 199 202 204 206 207 209 211 212 215 217 219 221 222 224 225 227 229 229 227 223 220 219 220 221 223 224 227 230 232 236 239
230 232 232 231 229 227 227 227 227 227 227 227 227 227 227 226 227 226 226 225 225 224 224 224 225 225 226 226 227 228 229 230 229 227 225 223 220 218 216 214 212 212 211 210 208 206 205 207 208 207 206 207 206 201 197 196 198 201 203 205 207 210 212 213 215 217 219 220 222 223 225 226 226 224 222 220 220 222 224 226 228 231 234 238 242 244
228 230 230 229 228 227 226 227 227 227 227 228 227 227 226 225 225 225 225 224 223 223 224 224 224 224 225 226 227 227 227 228 228 228 227 226 224 222 219 216 214 213 212 211 209 209 209 211 214 215 212 208 203 199 194 195 198 199 199 199 204 208 210 211 213 214 216 218 220 221 223 223 223 222 221 221 223 225 228 230 233 236 239 242 246 249
226 229 230 230 229 228 228 228 228 228 227 226 225 223 221 221 220 220 220 220 219 219 219 220 221 222 224 225 226 226 226 226 226 227 227 226 225 224 221 218 217 216 215 212 211 211 212 214 216 217 215 211 206 201 197 196 198 197 195 196 201 205 207 208 210 212 214 217 219 221 222 222 222 221 222 223 225 228 231 233 236 239 242 246 248 251
226 229 229 229 228 228 229 229 228 227 226 223 220 218 216 216 214 213 212 212 213 214 215 216 216 217 220 222 224 224 224 224 224 225 225 226 225 224 222 220 219 218 217 215 213 213 214 215 216 216 213 210 205 202 200 199 199 198 197 198 199 202 205 208 209 211 212 215 218 221 222 222 222 222 222 224 226 229 232 235 238 241 244 247 250 252
226 227 228 228 228 228 228 226 224 222 220 218 216 215 214 214 212 210 209 208 209 210 212 213 213 212 213 217 221 223 223 223 222 223 224 225 225 224 223 222 221 220 218 216 214 214 215 216 217 217 215 211 207 202 197 195 196 197 198 198 196 194 198 207 209 210 212 214 216 218 220 221 222 222 223 225 227 230 233 236 240 243 247 249 251 254
225 227 228 228 228 227 225 222 219 216 214 213 212 212 212 212 211 209 207 206 207 208 209 210 210 210 211 215 219 221 223 223 222 222 222 223 224 225 224 224 223 223 222 218 215 213 213 214 216 217 216 212 208 204 199 195 194 196 198 199 198 197 200 206 208 209 210 212 214 216 219 220 221 222 225 227 230 233 236 239 242 245 249 251 253 255
222 223 223 223 222 221 218 217 215 213 211 211 210 210 210 210 209 207 206 206 207 207 207 206 205 206 211 216 218 219 222 223 222 222 221 221 222 223 224 224 224 224 223 222 219 215 211 210 212 213 213 211 208 205 201 196 195 196 197 199 201 204 208 211 211 209 209 211 212 214 217 219 221 223 227 231 234 237 239 242 244 247 249 252 254 255
218 217 216 215 215 214 214 213 212 210 209 209 208 207 207 207 207 206 205 205 206 206 207 205 204 206 212 216 217 217 219 221 221 220 219 218 218 219 220 221 222 223 223 222 221 219 215 211 208 206 205 204 205 206 205 200 196 194 196 198 200 203 207 210 212 212 211 210 210 212 215 218 222 226 230 235 239 242 244 246 247 248 250 251 253 255
212 212 211 210 210 211 211 210 208 207 207 206 204 204 204 204 203 203 203 204 204 203 203 203 205 209 214 216 216 215 215 213 215 217 217 215 215 215 215 217 219 221 222 222 220 220 220 217 213 206 200 197 198 202 204 202 199 196 195 196 198 200 203 206 209 212 212 211 210 212 215 219 224 230 236 242 247 250 251 251 251 251 251 252 254 256
209 209 209 209 209 209 209 208 206 204 204 203 202 201 201 201 200 199 199 201 203 203 202 202 206 212 217 218 218 217 216 214 213 213 213 211 211 211 211 212 213 215 217 218 217 216 216 216 215 211 205 200 197 197 199 199 199 198 197 197 198 200 203 207 210 212 214 213 214 216 220 224 230 235 241 247 253 256 257 257 255 254 254 254 256 258
207 207 209 208 206 205 205 205 204 202 202 201 200 198 199 200 200 199 198 199 200 201 201 203 207 211 215 217 219 218 217 215 212 210 207 205 204 203 203 204 205 205 206 207 207 207 208 210 211 213 212 207 202 198 196 196 198 199 199 199 200 202 206 210 213 216 218 219 221 224 229 233 237 241 245 249 253 257 260 261 261 259 258 258 259 261
206 207 208 206 205 204 204 203 202 201 201 199 197 196 196 197 197 198 200 200 200 202 205 205 206 208 211 214 215 215 214 212 209 204 201 199 197 195 193 192 191 190 189 189 191 194 197 200 205 209 211 212 208 203 198 196 197 198 200 202 204 207 210 214 217 220 223 224 227 230 233 237 240 244 246 247 251 256 260 263 264 264 263 263 264 265
206 206 206 206 205 205 204 202 201 201 200 198 196 194 194 193 194 196 198 199 200 202 205 206 206 207 210 211 212 211 211 208 204 200 196 193 191 188 186 184 181 178 175 174 176 181 186 191 201 209 213 213 212 209 205 198 195 196 200 205 208 211 213 216 220 223 226 228 230 232 234 236 238 239 241 242 246 251 257 260 263 264 266 267 268 269
Height
745 746 746 748 749 751 752 753 754 756 756 757 758 759 761 762 764 765 767 769 771 773 774 776 778 780 782 784 785 786 786 786 786 787 788 788 788 789 791 792 793 794 795 796 797 797 798 798 798 798 799 799 800 800 801 802 803 804 805 806 807 809 810 811 811 812 812 813 813 814 814 814 814 815 815 815 816 816 816 816 817 817 817 817 818 818
745 745 746 747 748 749 750 751 753 754 754 755 756 757 759 760 761 763 765 767 769 770 772 774 776 778 779 781 782 784 784 785 785 785 786 786 787 788 789 790 791 792 794 794 795 796 796 796 796 797 797 798 798 799 800 800 801 802 804 805 806 807 809 809 810 811 811 812 812 812 813 813 813 814 814 814 814 815 815 815 816 816 816 817 817 817
744 744 745 746 747 748 749 750 751 752 753 754 755 756 757 759 760 761 763 764 766 768 770 772 774 775 777 778 779 781 783 784 784 784 784 785 785 786 787 788 789 790 792 793 793 794 794 794 795 795 796 796 797 798 798 799 800 801 802 804 805 806 807 808 809 809 810 810 811 811 811 812 812 812 813 813 814 814 814 814 815 815 815 816 816 816
743 743 744 744 746 747 748 749 750 751 753 754 754 755 756 758 759 760 761 763 764 766 768 770 771 773 774 776 778 779 781 782 783 783 783 783 784 784 785 786 787 789 789 790 791 792 792 793 793 794 794 795 795 796 797 798 799 800 801 802 804 805 806 807 808 808 809 809 809 810 810 810 811 811 811 812 812 813 813 814 814 814 814 815 815 816
743 742 743 744 745 747 748 749 750 751 752 753 754 755 756 757 758 759 760 762 763 764 766 768 769 771 773 774 776 778 780 780 781 781 781 781 782 783 784 784 786 787 788 789 789 790 790 791 792 792 793 793 794 794 795 796 797 798 799 801 802 803 804 805 806 806 807 808 808 808 809 809 809 809 810 810 811 812 812 813 813 813 814 814 814 815
742 742 743 744 745 746 747 748 749 750 751 752 753 754 755 756 758 759 760 761 762 763 764 765 767 769 771 773 775 776 778 779 779 779 779 780 780 781 782 783 784 785 786 787 787 788 789 789 790 790 791 792 792 793 794 795 796 797 798 799 800 802 803 804 804 805 805 806 806 807 807 807 807 808 809 809 809 810 811 811 812 812 813 813 814 814
742 742 743 744 745 746 747 748 748 749 750 752 753 754 755 756 758 759 760 760 761 761 763 764 766 768 769 771 773 775 776 776 777 777 778 778 779 779 780 781 782 783 784 784 785 786 787 787 788 789 789 790 790 791 792 793 794 795 796 798 799 800 801 802 802 803 804 804 804 804 805 805 806 806 807 808 808 809 809 810 810 811 811 812 812 813
741 742 743 744 745 746 747 747 748 749 749 751 752 753 754 756 758 759 760 760 760 761 762 763 765 766 768 769 771 772 774 774 775 775 776 777 777 778 779 780 781 781 782 783 784 784 785 785 786 787 787 788 789 789 790 791 793 794 795 796 797 798 799 800 800 801 801 802 802 803 803 804 804 805 805 806 806 807 808 808 809 809 810 810 811 811
741 742 743 744 745 746 747 747 747 748 749 750 751 752 754 755 757 759 759 760 760 760 761 762 763 764 766 767 769 770 771 772 773 773 774 774 775 776 777 778 779 779 780 781 781 782 783 783 784 785 785 786 787 788 789 790 791 792 793 794 795 796 797 798 799 799 799 800 800 801 802 802 803 803 804 804 805 805 806 806 807 808 808 809 809 809
740 741 742 743 744 745 746 747 747 748 748 749 750 751 752 754 756 757 759 759 759 759 760 761 762 763 764 765 767 768 769 770 770 771 772 773 774 774 775 776 777 778 778 779 779 780 781 781 782 783 784 784 785 786 787 788 789 790 791 792 793 794 795 796 796 797 798 798 799 799 800 801 801 802 802 803 803 804 804 805 805 806 806 807 807 808
739 740 741 743 744 745 746 746 746 747 748 749 750 751 752 753 754 755 757 757 757 758 759 759 760 761 762 764 764 766 767 768 768 769 770 771 772 773 774 774 775 776 776 777 778 778 779 779 780 781 782 783 783 784 785 786 787 788 789 790 791 792 793 794 794 795 796 796 797 798 798 799 799 800 800 801 801 802 802 803 804 804 804 805 806 806
739 739 740 741 743 744 745 745 746 746 747 749 750 751 751 752 752 753 754 755 756 756 757 758 759 759 760 761 762 763 764 765 766 767 768 769 770 771 772 772 773 774 774 775 775 776 777 777 778 779 780 781 782 783 784 784 785 786 787 788 789 790 791 792 793 793 794 794 795 796 797 797 798 798 799 799 799 800 801 801 802 802 803 803 804 804
737 738 739 740 741 742 743 744 745 745 746 747 748 748 749 749 751 752 753 753 754 754 755 756 756 757 758 759 760 761 762 763 764 765 766 767 768 768 769 770 771 771 772 773 773 774 774 775 776 777 778 779 780 781 782 783 784 784 785 786 787 788 789 790 790 791 792 793 794 794 795 795 796 796 797 797 798 799 799 799 800 801 801 802 802 803
736 737 738 739 739 740 741 742 743 743 744 744 744 744 745 747 749 750 752 753 753 754 754 754 755 755 756 757 757 758 759 761 762 764 764 764 765 766 767 768 768 769 770 770 771 772 773 774 774 775 776 777 778 779 780 781 782 783 784 784 785 786 787 788 789 789 790 791 792 793 793 794 794 795 795 796 796 797 797 798 799 799 799 800 800 801
735 736 737 737 737 738 739 739 740 740 741 741 742 744 745 747 748 749 751 752 752 753 753 754 754 754 754 754 755 756 757 759 760 762 762 762 763 764 765 766 766 767 768 768 769 769 770 772 772 773 774 775 776 777 778 779 780 781 782 783 784 784 785 786 787 788 789 789 790 791 791 792 793 793 794 794 795 795 796 797 797 798 798 799 799 799
734 734 734 734 735 735 736 737 737 738 739 740 741 743 744 745 746 747 749 750 751 752 752 753 753 752 752 752 752 754 755 757 758 759 760 760 760 761 763 764 764 765 766 766 766 767 769 769 770 771 772 773 774 775 776 777 778 779 780 781 782 783 784 784 785 786 787 788 789 789 790 790 791 791 792 793 793 794 794 795 796 796 797 797 798 798
732 732 732 732 733 733 734 734 735 736 738 739 740 741 742 742 743 745 746 748 749 750 751 751 751 751 750 749 750 751 752 754 756 757 758 758 758 759 760 762 762 763 763 764 764 765 766 767 768 769 770 771 772 773 774 776 777 778 779 780 781 781 782 783 784 785 786 786 787 788 788 789 789 790 790 791 792 792 793 794 794 795 795 796 796 797
730 730 730 730 730 731 732 733 734 735 736 737 738 739 740 740 741 743 744 746 747 748 749 749 748 748 747 747 748 748 749 752 754 755 756 756 756 757 758 759 760 761 761 761 762 763 764 765 766 767 768 769 770 772 773 774 775 776 777 778 779 780 781 782 783 784 784 785 786 786 787 787 788 789 789 789 790 791 791 792 793 793 794 794 795 796
728 728 728 728 729 729 730 731 732 733 734 735 736 737 738 739 740 741 742 744 744 745 746 746 746 745 745 745 745 746 748 750 752 754 754 754 755 755 756 758 759 759 760 759 760 761 762 763 764 765 766 767 769 770 771 772 773 774 776 777 778 779 779 780 781 782 783 784 784 785 785 786 786 787 788 788 789 789 790 791 791 792 792 793 794 794
726 726 726 726 727 728 728 729 729 730 731 732 734 735 736 737 738 739 740 741 742 743 744 744 743 743 743 744 744 745 747 749 750 752 752 753 753 754 755 756 757 758 758 757 758 759 760 761 762 764 765 766 767 768 769 770 771 773 774 775 776 777 778 779 780 781 781 782 783 783 784 784 785 785 786 787 787 788 789 789 790 790 791 792 792 793
724 723 723 724 725 726 726 726 727 728 729 731 732 733 734 735 736 737 738 739 741 742 742 742 741 740 741 742 743 744 745 746 748 749 750 751 752 752 753 754 755 756 756 755 756 757 758 759 760 762 763 764 765 766 767 768 769 771 772 773 774 775 776 777 778 779 780 780 781 782 782 783 783 784 784 785 786 786 787 788 788 789 789 790 791 791
721 721 721 722 723 724 724 725 726 727 728 729 730 731 732 733 734 734 735 737 739 739 739 739 738 738 739 740 741 742 743 744 745 746 748 749 749 749 751 752 754 754 754 754 754 755 756 757 759 760 762 763 764 765 766 767 768 769 770 771 772 774 774 775 776 777 778 779 779 780 780 781 782 782 783 784 784 785 785 786 787 788 788 789 789 790
719 720 720 721 722 722 723 724 725 726 727 727 728 728 729 730 730 731 733 734 735 736 736 736 736 737 738 739 740 740 741 742 743 744 746 746 746 747 749 751 752 753 752 752 752 753 754 755 757 759 760 762 763 764 764 765 766 767 768 769 770 771 772 774 774 775 776 777 778 778 779 779 780 781 781 782 783 783 784 785 785 786 787 787 788 788
718 719 719 720 720 721 722 723 724 724 725 725 726 727 728 729 729 731 732 733 734 734 735 736 736 737 737 738 739 739 739 740 741 742 743 744 744 746 748 749 750 751 750 750 751 751 752 754 755 757 759 760 761 762 763 763 764 765 766 767 768 769 770 771 772 773 774 775 776 776 777 778 779 779 780 781 781 782 783 783 784 784 785 785 786 786
717 717 718 719 720 720 721 722 723 724 724 724 725 726 728 729 730 731 733 734 734 735 735 735 735 735 735 736 736 737 737 738 739 740 741 743 744 746 747 748 748 749 748 749 749 749 750 751 753 755 757 758 759 760 761 761 762 763 764 764 766 767 768 769 770 771 772 773 774 775 776 776 777 778 779 779 780 781 781 782 782 783 784 784 784 785
715 716 717 718 719 719 720 721 722 723 723 724 724 725 727 728 729 731 732 733 733 734 734 734 733 733 733 734 734 735 735 736 737 738 739 742 744 745 745 745 746 747 747 747 748 748 749 749 751 753 755 756 758 759 759 759 760 760 761 762 763 764 765 767 768 769 770 771 772 773 774 775 776 776 777 778 779 779 780 780 781 781 782 782 783 783
714 715 715 716 717 718 719 720 721 722 722 723 723 724 725 727 728 729 729 730 730 731 731 731 731 731 732 733 733 733 734 735 736 737 738 741 742 743 743 743 744 745 746 746 746 746 747 748 750 751 753 754 755 756 757 757 758 759 759 760 761 762 763 764 765 767 768 769 770 772 773 773 774 775 776 776 777 778 778 779 779 780 780 781 781 781
712 713 714 714 715 716 717 718 719 720 721 722 722 723 724 724 725 725 725 726 728 729 729 729 729 730 731 731 731 732 733 734 734 735 738 740 741 741 741 741 742 743 744 744 745 745 746 747 749 750 751 752 754 754 755 755 756 756 757 758 759 760 761 762 764 765 766 768 769 770 771 772 773 774 774 775 775 776 777 777 778 778 779 779 779 780
710 711 712 713 714 714 715 716 717 718 719 720 721 721 721 721 721 722 722 724 726 727 727 727 727 728 728 729 730 732 732 733 733 734 737 739 739 739 739 740 740 741 742 744 744 745 746 746 748 749 749 750 751 752 752 753 754 754 755 756 757 758 759 761 762 763 765 766 767 769 769 770 771 772 773 773 774 774 775 776 776 777 777 778 778 778
708 709 709 710 711 712 713 714 715 716 717 718 719 719 719 719 719 719 720 722 723 724 724 725 725 726 727 729 731 731 731 730 731 733 735 737 737 737 738 738 739 739 741 743 745 746 745 745 746 747 747 748 749 749 750 751 751 752 753 754 755 757 758 759 760 762 763 764 766 767 768 769 770 770 771 772 772 773 774 774 775 775 776 776 776 777
705 706 707 708 709 710 711 711 712 713 714 715 716 717 716 716 717 718 719 720 720 720 721 723 724 725 726 728 729 729 728 727 728 730 733 734 735 735 736 737 737 738 739 741 744 745 745 744 744 744 744 745 746 747 748 749 749 750 751 752 754 755 756 758 759 760 762 763 764 765 767 768 768 769 770 770 771 771 772 773 774 774 774 774 775 775
704 704 705 705 706 707 708 709 709 710 712 713 714 714 714 714 714 715 717 717 718 718 719 720 722 723 724 725 725 725 724 725 726 728 730 732 733 734 735 735 736 737 738 739 741 742 743 742 741 741 742 743 744 744 746 747 748 749 750 751 752 753 755 756 758 759 760 762 763 764 765 766 767 768 768 769 769 770 771 771 772 772 773 773 773 774
702 702 703 704 704 705 705 706 707 708 709 709 710 711 712 712 712 713 714 714 715 716 717 719 720 721 722 723 723 723 723 724 725 726 728 730 732 733 734 734 735 736 737 739 739 740 740 739 739 739 739 740 741 743 744 745 746 747 749 749 750 752 753 755 756 757 759 760 762 763 764 765 765 766 767 767 768 769 769 770 770 771 771 771 772 772
700 700 701 702 702 703 703 704 704 705 706 707 708 709 709 710 710 711 711 712 713 714 715 716 718 719 720 722 722 722 723 724 724 725 726 728 730 731 732 732 733 734 736 738 739 739 738 738 738 738 738 739 739 741 742 744 745 746 747 748 749 751 752 754 755 756 758 759 760 761 762 763 764 765 765 766 767 767 768 769 769 769 770 770 770 771
698 699 699 699 700 700 701 701 702 702 703 704 705 706 707 707 708 708 709 710 711 712 713 714 715 717 718 719 720 721 722 723 723 724 725 726 728 729 730 730 731 732 734 735 736 737 737 737 737 737 737 738 739 740 741 742 744 745 746 747 749 750 751 752 753 755 756 758 759 760 761 761 762 763 764 764 765 766 766 767 768 768 769 769 769 769
696 697 697 697 698 698 698 699 699 699 700 701 702 703 704 705 706 706 707 708 709 710 711 713 714 715 716 717 718 718 719 721 722 723 723 724 726 727 728 728 728 729 731 732 734 734 735 735 736 736 736 737 738 739 740 741 742 744 745 747 748 749 750 751 752 754 755 756 757 758 759 760 761 761 762 763 764 764 765 765 766 767 767 768 768 768
694 694 694 695 695 696 696 696 697 697 698 699 700 701 702 703 704 705 705 707 708 709 710 711 713 714 715 715 716 717 718 719 720 721 721 723 724 725 725 725 726 727 728 729 731 733 734 735 735 736 736 736 737 737 738 740 741 743 744 745 746 748 749 750 751 753 754 755 756 757 758 759 759 760 761 761 762 763 763 764 764 765 766 766 766 767
692 692 692 693 693 694 694 694 694 695 696 697 698 699 701 702 703 704 704 705 706 708 709 710 711 712 714 714 715 716 717 718 719 719 720 721 722 723 723 724 724 725 726 727 729 730 732 734 735 735 736 735 735 736 737 738 740 741 743 744 745 747 748 749 750 751 752 753 754 755 756 757 758 758 759 760 760 761 761 762 763 763 764 764 765 765
690 690 690 691 691 692 692 692 693 694 694 695 697 698 699 701 702 703 704 704 705 706 707 709 710 711 712 713 714 715 716 716 717 717 718 719 720 721 722 722 723 724 724 726 728 729 731 732 733 733 734 734 735 735 736 737 738 739 741 743 744 746 747 748 749 750 751 752 753 754 755 755 756 757 757 758 759 759 760 760 761 762 762 763 763 764
688 688 688 689 689 690 690 691 691 692 694 694 696 697 698 699 700 701 702 703 704 705 706 707 709 709 710 711 712 713 714 715 715 716 717 717 718 719 720 721 722 723 724 725 727 728 729 730 731 731 732 733 734 734 735 736 737 739 740 742 744 744 745 746 747 749 749 750 751 752 753 754 754 755 756 756 757 757 758 759 759 760 761 761 762 762
685 686 686 687 688 689 689 690 691 692 693 694 694 695 696 697 698 699 700 701 703 704 705 706 707 708 709 709 710 711 712 713 714 714 715 716 717 718 719 720 721 722 723 724 726 727 728 729 730 730 731 732 733 734 734 735 736 738 739 740 741 742 743 745 746 747 748 749 750 750 751 752 753 754 754 755 755 756 757 758 758 759 759 759 760 760
683 684 684 686 687 687 688 689 690 691 691 692 693 693 694 695 696 697 699 700 701 702 703 704 705 706 707 708 709 710 711 712 712 713 714 715 716 717 718 719 720 721 722 723 724 726 727 728 729 729 730 731 732 733 734 734 735 737 738 739 739 741 743 744 744 745 746 747 748 749 750 750 751 752 753 754 754 755 755 756 757 757 758 758 758 758
681 682 683 684 685 686 687 688 689 689 690 690 691 691 692 693 694 695 697 698 699 700 701 702 703 704 705 706 707 708 709 710 711 712 713 714 715 716 717 718 719 720 721 722 724 724 726 727 728 729 729 730 731 732 733 734 735 736 737 738 739 741 742 742 743 744 745 745 746 747 748 749 750 750 751 752 753 754 754 754 755 755 756 756 756 756
679 680 682 683 684 685 686 686 687 687 688 688 689 689 691 692 693 694 695 696 697 698 699 700 702 703 704 705 706 707 708 709 709 711 712 713 714 715 716 717 718 719 720 721 722 724 725 726 727 727 728 729 730 731 732 733 734 734 735 737 738 738 739 739 740 742 743 744 745 746 747 748 749 749 750 751 751 752 753 753 753 754 754 754 754 754
678 679 680 682 683 684 684 684 685 685 686 687 687 688 689 690 691 693 694 695 696 697 698 699 701 702 703 704 704 706 706 707 708 709 710 711 713 714 715 716 717 718 719 719 720 722 723 724 725 726 727 729 729 730 731 731 732 733 734 735 737 737 737 738 739 740 741 743 744 744 746 747 748 748 749 749 750 750 751 751 752 752 752 752 752 752
676 677 678 679 680 681 682 682 683 684 685 685 686 687 688 689 690 691 692 694 695 696 697 698 699 700 701 702 703 704 705 706 707 708 709 710 711 712 714 714 716 717 718 719 719 720 721 722 723 725 726 728 728 729 729 730 731 732 733 734 735 737 737 738 739 739 740 741 742 744 744 745 746 747 748 748 748 749 749 749 750 750 750 750 750 750
673 675 676 677 678 679 680 681 682 683 683 684 684 685 686 687 689 690 691 692 694 695 696 697 698 699 699 700 702 703 704 704 705 707 708 709 709 711 712 713 714 716 717 718 719 720 721 721 722 723 724 726 727 728 728 729 730 731 732 733 734 735 736 737 738 739 739 741 742 743 744 744 745 746 746 746 747 747 747 748 748 748 749 749 749 749
671 673 674 675 676 678 678 679 680 681 681 682 683 684 685 686 687 688 690 691 692 694 695 696 697 697 698 699 700 701 702 703 704 705 706 707 709 709 711 712 714 715 716 718 719 720 720 721 722 722 723 724 724 726 727 728 729 730 731 732 733 734 735 736 737 738 739 740 741 742 743 743 744 744 745 745 745 745 745 746 746 746 747 747 747 747
669 670 672 674 674 676 676 677 678 679 679 680 681 682 683 684 685 687 688 689 691 692 693 694 695 696 697 698 699 699 701 702 703 704 705 706 707 709 710 711 713 714 716 717 718 719 719 720 721 721 722 722 723 724 725 726 728 729 730 731 732 733 734 735 736 737 738 739 739 740 741 742 743 743 744 744 744 744 744 744 744 744 745 745 745 745
667 669 670 671 673 674 674 675 676 677 678 679 680 681 682 683 684 685 686 688 689 690 691 692 693 694 695 696 697 698 699 700 701 703 704 705 706 707 709 710 712 714 715 716 717 718 719 719 720 720 721 722 722 723 724 725 726 728 729 730 731 732 733 734 734 735 736 737 739 739 740 741 742 742 743 743 743 743 742 742 742 743 743 744 744 744
665 667 668 669 670 671 672 673 674 675 676 677 678 679 680 681 683 684 685 686 687 688 689 690 691 692 693 694 695 697 698 699 699 701 702 703 704 706 707 709 710 712 714 715 716 717 718 719 719 720 720 720 721 722 723 724 725 727 728 729 729 730 731 732 733 734 735 736 737 738 739 740 740 741 742 742 742 741 741 741 741 741 741 742 742 742